Tappahannock, VA

9:45 AM EDT on September 19, 2019 (GMT -0400)
Tappahannock

Weather History for KXSA - August, 2019

Change the Weather History Date:

Sunday, August 25, 2019

  Actual Average (KOFP) Record (KOFP)
Temperature  
Mean Temperature 70 °F -  
Max Temperature 79 °F 84 °F 100 °F (1998)
Min Temperature 60 °F 62 °F 49 °F (1978)
Cooling Degree Days 4    
Growing Degree Days 20 (Base 50)    
Moisture  
Dew Point 61 °F    
Average Humidity 79    
Maximum Humidity 100    
Minimum Humidity 55    
Precipitation  
Precipitation 0.00 in - - ()
Sea Level Pressure  
Sea Level Pressure 30.17 in    
Wind  
Wind Speed 4 mph (NNE)    
Max Wind Speed 14 mph    
Max Gust Speed 22 mph    
Visibility 10 miles    
Events      
Averages and records for this station are not official NWS values.
T = Trace of Precipitation, MM = Missing Value Source: NWS Daily Summary

Daily Weather History Graph

Daily Weather History Graph

Search for Another Location

Airport or City:

Astronomy

Aug. 25, 2019 Rise Set
Actual Time 6:31 AM EDT 7:47 PM EDT
Civil Twilight 6:04 AM EDT 8:14 PM EDT
Nautical Twilight 5:31 AM EDT 8:47 PM EDT
Astronomical Twilight 4:57 AM EDT 9:21 PM EDT
Moon 1:07 AM EDT (8/25) 4:02 PM EDT (8/25)
Length of Visible Light 14h 10m
Length of Day
13h 16m
Waning Crescent, 29% of the Moon is Illuminated
Aug 25
Waning Crescent
Aug 30
New
Sep 5
First Quarter
Sep 14
Full
Sep 21
Last Quarter

Hourly Weather History & Observations

Time (EDT) Temp. Dew Point Humidity Pressure Visibility Wind Dir Wind Speed Gust Speed Precip Events Conditions
12:15 AM 64.0 °F 63.1 °F 97% 30.19 in 10.0 mi Calm Calm - N/A   Clear
12:35 AM 63.5 °F 63.5 °F 100% 30.20 in 10.0 mi Calm Calm - N/A   Clear
12:55 AM 64.4 °F 64.4 °F 100% 30.20 in 10.0 mi Calm Calm - N/A   Clear
1:15 AM 63.9 °F 63.9 °F 100% 30.19 in 10.0 mi North 3.5 mph - N/A   Clear
1:35 AM 64.6 °F 63.5 °F 96% 30.18 in 10.0 mi Calm Calm - N/A   Scattered Clouds
1:55 AM 62.8 °F 62.8 °F 100% 30.18 in 10.0 mi Calm Calm - N/A   Clear
2:15 AM 62.1 °F 62.1 °F 100% 30.18 in 10.0 mi Calm Calm - N/A   Clear
2:35 AM 61.5 °F 61.5 °F 100% 30.18 in 10.0 mi Calm Calm - N/A   Clear
2:55 AM 61.3 °F 61.3 °F 100% 30.17 in 10.0 mi Calm Calm - N/A   Clear
3:15 AM 60.4 °F 60.4 °F 100% 30.17 in 10.0 mi NNW 3.5 mph - N/A   Clear
3:35 AM 60.6 °F 60.6 °F 100% 30.16 in 10.0 mi North 3.5 mph - N/A   Clear
3:55 AM 62.2 °F 61.7 °F 98% 30.16 in 10.0 mi North 3.5 mph - N/A   Clear
4:15 AM 60.6 °F 60.6 °F 100% 30.16 in 10.0 mi Calm Calm - N/A   Clear
4:35 AM 60.1 °F 60.1 °F 100% 30.17 in 10.0 mi Calm Calm - N/A   Clear
4:55 AM 60.3 °F 60.3 °F 100% 30.16 in 10.0 mi Calm Calm - N/A   Clear
5:15 AM 60.8 °F 60.8 °F 100% 30.16 in 10.0 mi Calm Calm - N/A   Clear
5:35 AM 60.4 °F 60.4 °F 100% 30.17 in 10.0 mi Calm Calm - N/A   Clear
5:55 AM 61.3 °F 61.3 °F 100% 30.17 in 10.0 mi North 3.5 mph - N/A   Clear
6:15 AM 62.8 °F 61.9 °F 97% 30.17 in 10.0 mi Calm Calm - N/A   Clear
6:35 AM 61.9 °F 61.5 °F 99% 30.17 in 10.0 mi North 3.5 mph - N/A   Clear
6:55 AM 63.0 °F 61.3 °F 94% 30.18 in 10.0 mi Calm Calm - N/A   Clear
7:15 AM 63.0 °F 61.9 °F 96% 30.18 in 10.0 mi North 3.5 mph - N/A   Clear
7:35 AM 64.4 °F 62.4 °F 93% 30.18 in 10.0 mi North 3.5 mph - N/A   Clear
7:55 AM 65.8 °F 62.2 °F 88% 30.19 in 10.0 mi North 3.5 mph - N/A   Clear
8:15 AM 67.1 °F 62.1 °F 84% 30.19 in 10.0 mi North 4.6 mph - N/A   Clear
8:35 AM 68.2 °F 61.3 °F 79% 30.19 in 10.0 mi North 5.8 mph - N/A   Clear
8:55 AM 69.3 °F 60.8 °F 74% 30.19 in 10.0 mi North 8.1 mph - N/A   Clear
9:15 AM 70.0 °F 59.7 °F 70% 30.19 in 10.0 mi North 9.2 mph - N/A   Clear
9:55 AM 72.1 °F 58.1 °F 61% 30.19 in 10.0 mi NNE 11.5 mph 17.3 mph N/A   Scattered Clouds
10:15 AM 73.0 °F 58.6 °F 61% 30.19 in 10.0 mi NNE 10.4 mph 16.1 mph N/A   Mostly Cloudy
10:35 AM 73.8 °F 58.8 °F 59% 30.19 in 10.0 mi North 13.8 mph 18.4 mph N/A   Scattered Clouds
10:55 AM 70.7 °F 61.5 °F 73% 30.20 in 10.0 mi North 8.1 mph - N/A   Mostly Cloudy
11:15 AM 72.3 °F 61.5 °F 69% 30.19 in 10.0 mi North 6.9 mph - N/A   Overcast
11:35 AM 73.0 °F 62.2 °F 69% 30.19 in 10.0 mi NNW 6.9 mph - N/A   Overcast
11:55 AM 72.1 °F 63.3 °F 74% 30.18 in 10.0 mi NNW 8.1 mph - N/A   Overcast
12:15 PM 73.6 °F 62.8 °F 69% 30.18 in 10.0 mi NNE 6.9 mph - N/A   Overcast
12:35 PM 73.9 °F 63.0 °F 68% 30.17 in 10.0 mi NNE 11.5 mph - N/A   Mostly Cloudy
12:55 PM 73.6 °F 62.6 °F 68% 30.17 in 10.0 mi North 9.2 mph 16.1 mph N/A   Mostly Cloudy
1:15 PM 75.0 °F 60.3 °F 60% 30.16 in 10.0 mi NE 10.4 mph 17.3 mph N/A   Mostly Cloudy
1:35 PM 77.0 °F 61.9 °F 59% 30.16 in 10.0 mi NNE 10.4 mph 16.1 mph N/A   Mostly Cloudy
1:55 PM 77.4 °F 62.6 °F 60% 30.16 in 10.0 mi NNE 6.9 mph 21.9 mph N/A   Mostly Cloudy
2:15 PM 78.1 °F 61.7 °F 57% 30.16 in 10.0 mi NNE 12.7 mph 18.4 mph N/A   Mostly Cloudy
2:35 PM 77.4 °F 61.9 °F 59% 30.16 in 10.0 mi NNE 8.1 mph - N/A   Scattered Clouds
2:55 PM 79.0 °F 61.7 °F 55% 30.15 in 10.0 mi NE 10.4 mph 16.1 mph N/A   Clear
3:15 PM 78.3 °F 63.1 °F 60% 30.15 in 10.0 mi NE 11.5 mph 17.3 mph N/A   Scattered Clouds
3:35 PM 77.5 °F 62.8 °F 60% 30.15 in 10.0 mi NNE 11.5 mph 17.3 mph N/A   Scattered Clouds
3:55 PM 77.5 °F 63.1 °F 61% 30.14 in 4.0 mi North 11.5 mph 16.1 mph N/A   Haze
4:15 PM 77.9 °F 63.1 °F 60% 30.14 in 10.0 mi NNE 10.4 mph 18.4 mph N/A   Scattered Clouds
4:35 PM 75.2 °F 62.6 °F 65% 30.14 in 10.0 mi NNE 8.1 mph - N/A   Mostly Cloudy
4:55 PM 76.3 °F 62.2 °F 62% 30.14 in 10.0 mi NNE 8.1 mph 17.3 mph N/A   Scattered Clouds
5:15 PM 77.2 °F 62.8 °F 61% 30.14 in 10.0 mi NNE 4.6 mph - N/A   Clear
5:35 PM 77.0 °F 61.7 °F 59% 30.14 in 10.0 mi NE 6.9 mph - N/A   Clear
5:55 PM 76.3 °F 60.4 °F 58% 30.14 in 10.0 mi NE 9.2 mph 19.6 mph N/A   Scattered Clouds
6:15 PM 75.9 °F 60.8 °F 59% 30.14 in 10.0 mi NE 8.1 mph - N/A   Clear
6:35 PM 74.3 °F 60.1 °F 61% 30.15 in 10.0 mi NE 9.2 mph - N/A   Scattered Clouds
6:55 PM 73.6 °F 59.5 °F 61% 30.14 in 10.0 mi NE 8.1 mph - N/A   Scattered Clouds
7:15 PM 73.0 °F 59.2 °F 62% 30.14 in 10.0 mi NE 8.1 mph - N/A   Clear
7:35 PM 71.8 °F 59.2 °F 64% 30.14 in 10.0 mi NNE 6.9 mph - N/A   Clear
7:55 PM 70.5 °F 59.7 °F 69% 30.14 in 10.0 mi NE 6.9 mph - N/A   Clear
8:15 PM 69.4 °F 59.9 °F 72% 30.15 in 10.0 mi NE 5.8 mph - N/A   Clear
8:35 PM 69.3 °F 59.9 °F 72% 30.15 in 10.0 mi NE 8.1 mph - N/A   Clear
8:55 PM 68.2 °F 60.1 °F 75% 30.16 in 10.0 mi NNE 4.6 mph - N/A   Clear
9:15 PM 67.5 °F 60.8 °F 79% 30.17 in 10.0 mi NNE 3.5 mph - N/A   Clear
9:35 PM 66.9 °F 61.0 °F 81% 30.17 in 10.0 mi NNE 3.5 mph - N/A   Clear
9:55 PM 66.7 °F 61.3 °F 83% 30.17 in 10.0 mi NE 3.5 mph - N/A   Clear
10:15 PM 66.4 °F 61.3 °F 84% 30.17 in 10.0 mi NNE 4.6 mph - N/A   Clear
10:35 PM 66.6 °F 61.7 °F 84% 30.17 in 10.0 mi NE 4.6 mph - N/A   Clear
10:55 PM 66.4 °F 61.9 °F 85% 30.17 in 10.0 mi NNE 4.6 mph - N/A   Clear
11:15 PM 65.7 °F 61.9 °F 88% 30.18 in 10.0 mi North 3.5 mph - N/A   Clear
11:35 PM 65.3 °F 62.2 °F 90% 30.17 in 10.0 mi North 3.5 mph - N/A   Clear
11:55 PM 64.9 °F 62.6 °F 92% 30.17 in 10.0 mi NNE 3.5 mph - N/A   Clear